ASIASAT 4

Last updated on Sun Apr 12 2026 00:02:51 GMT+0000 (Coordinated Universal Time)

1 27718U 03014A 26101.30878374 -.00000217 00000+0 00000+0 0 9992 2 27718 4.5347 76.5669 0002701 310.2356 71.4374 1.00271079 44639
UTC large
Height (km)
Speed (km/s)
/
Latitude / Longitude
Inclination (degrees)
Orbital Period (minutes)
Azimuth
Elevation
Range (km)
Doppler Factor

Next 0 passes for location: London (51.5072 / 0.1276)

Sorry there are no passes over London.
ASIASAT 4